CW2074 Weather Reports


Display with metric or nautical units.
time (UTC)temp
F
wind
direction
speed
MPH
gust
MPH
rain 1hr
in
rain 24hr
in
rain mn
in
humidity
%
barometer
mb
20170820054041 72 176 0.0 0.0 0.00 0.00 0.00 92 1014.2
20170820052537 72 176 0.0 0.0 0.00 0.00 0.00 91 1014.3
20170820051038 72 176 0.0 0.0 0.00 0.00 0.00 91 1014.4
20170820045534 72 176 0.0 0.0 0.00 0.00 0.00 91 1014.3
20170820044032 73 176 0.0 0.0 0.00 0.00 0.00 91 1014.3
20170820042537 73 176 0.0 0.0 0.00 0.00 0.00 91 1014.2
20170820041032 73 176 0.0 0.0 0.00 0.00 0.00 91 1014.2
20170820035528 73 176 0.0 0.0 0.00 0.00 0.00 91 1014.1
20170820034029 73 176 0.0 0.0 0.00 0.00 0.00 90 1014.0
20170820032635 74 176 0.0 0.0 0.00 0.00 0.00 90 1013.9
20170820031140 74 176 0.0 0.0 0.00 0.00 0.00 90 1013.8
20170820025526 74 176 0.0 0.0 0.00 0.00 0.00 89 1013.8
20170820024026 74 176 0.0 0.0 0.00 0.00 0.00 88 1013.8
20170820022533 74 176 0.0 0.0 0.00 0.00 0.00 87 1013.7
20170820021025 75 176 0.0 0.0 0.00 0.00 0.00 87 1013.5
20170820015526 75 176 0.0 0.0 0.00 0.00 0.00 87 1013.4
20170820014027 76 176 0.0 0.0 0.00 0.00 0.00 86 1013.2
20170820012531 76 176 0.0 0.0 0.00 0.00 0.00 86 1013.0
20170820011024 77 176 0.0 0.0 0.00 0.00 0.00 85 1012.7
20170820005527 78 176 0.0 0.0 0.00 0.00 0.00 86 1012.6
20170820004023 78 176 0.0 0.0 0.00 0.00 0.00 85 1012.5
20170820002530 79 176 0.0 0.0 0.00 0.00 0.00 83 1012.4
20170820001026 80 176 0.0 0.0 0.00 0.00 0.00 80 1012.3
20170819235531 81 176 0.0 0.0 0.00 0.00 0.00 78 1012.3
20170819234023 81 176 0.0 0.0 0.00 0.00 0.00 76 1012.2
20170819232523 82 176 0.0 0.0 0.00 0.00 0.00 75 1012.1
20170819231024 83 176 0.0 0.0 0.00 0.00 0.00 73 1012.0
20170819225525 84 176 0.0 0.0 0.00 0.00 0.00 72 1011.9
20170819224023 84 176 0.0 1.0 0.00 0.00 0.00 69 1011.9
20170819222523 85 176 0.0 0.0 0.00 0.00 0.00 68 1011.9
20170819221020 85 176 0.0 0.0 0.00 0.00 0.00 65 1011.9
20170819215519 86 176 0.0 1.0 0.00 0.00 0.00 63 1011.8
20170819214020 87 177 0.0 2.0 0.00 0.00 0.00 59 1011.8
20170819212529 87 308 0.0 3.0 0.00 0.00 0.00 57 1011.9
20170819211022 88 41 0.0 1.0 0.00 0.00 0.00 59 1012.0
20170819205545 88 70 0.0 1.0 0.00 0.00 0.00 56 1012.0
20170819204018 90 57 0.0 2.0 0.00 0.00 0.00 57 1012.0
20170819202528 90 355 0.0 2.0 0.00 0.00 0.00 52 1012.3
20170819201012 90 44 0.0 2.0 0.00 0.00 0.00 52 1012.3
20170819195511 90 40 1.0 3.0 0.00 0.00 0.00 53 1012.5
20170819194011 89 43 0.0 2.0 0.00 0.00 0.00 57 1012.5
20170819192517 90 107 0.0 3.0 0.00 0.00 0.00 59 1012.6
20170819191008 89 113 0.0 2.0 0.00 0.00 0.00 55 1012.7
20170819185506 89 17 0.0 2.0 0.00 0.00 0.00 58 1012.9
20170819184012 88 347 0.0 2.0 0.00 0.00 0.00 57 1013.2
20170819182504 88 236 0.0 3.0 0.00 0.00 0.00 58 1013.3
20170819181007 88 279 0.0 2.0 0.00 0.00 0.00 64 1013.5
20170819175504 88 229 0.0 2.0 0.00 0.00 0.00 59 1013.6
20170819174001 87 147 0.0 1.0 0.00 0.00 0.00 58 1013.7
20170819172457 86 67 0.0 3.0 0.00 0.00 0.00 65 1013.7
20170819171002 87 109 0.0 2.0 0.00 0.00 0.00 62 1013.9
20170819165500 87 138 0.0 3.0 0.00 0.00 0.00 62 1013.9
20170819163954 86 139 0.0 3.0 0.00 0.00 0.00 66 1014.0
20170819162453 86 184 0.0 2.0 0.00 0.00 0.00 65 1014.0
20170819160832 86 81 0.0 3.0 0.00 0.00 0.00 65 1014.2
20170819155219 85 58 0.0 3.0 0.00 0.00 0.00 63 1014.0
20170819153555 85 107 0.0 2.0 0.00 0.00 0.00 65 1014.0
20170819152019 85 196 0.0 2.0 0.00 0.00 0.00 65 1014.0
20170819150300 84 72 0.0 2.0 0.00 0.00 0.00 70 1013.6
20170819144651 83 17 0.0 2.0 0.00 0.00 0.00 72 1013.6
20170819143012 82 232 0.0 3.0 0.00 0.00 0.00 72 1013.4
20170819141317 82 355 0.0 1.0 0.00 0.00 0.00 74 1013.3
20170819135631 79 355 0.0 1.0 0.00 0.00 0.00 80 1013.2
20170819134050 77 130 0.0 2.0 0.00 0.00 0.00 85 1013.3
20170819132413 75 61 0.0 1.0 0.00 0.00 0.00 87 1013.2
20170819130640 73 275 0.0 0.0 0.00 0.00 0.00 90 1013.0
20170819125014 72 275 0.0 1.0 0.00 0.00 0.00 91 1013.0
20170819123407 71 275 0.0 0.0 0.00 0.00 0.00 92 1013.1
20170819121718 70 275 0.0 0.0 0.00 0.00 0.00 92 1013.0
20170819120109 69 275 0.0 0.0 0.00 0.00 0.00 92 1012.9
20170819114429 69 275 0.0 0.0 0.00 0.00 0.00 92 1012.9
20170819112801 68 275 0.0 0.0 0.00 0.00 0.00 92 1012.8
20170819111137 68 275 0.0 0.0 0.00 0.00 0.00 92 1012.8
20170819105544 68 275 0.0 0.0 0.00 0.00 0.00 92 1012.7
20170819103830 68 275 0.0 0.0 0.00 0.00 0.00 92 1012.7
20170819102217 69 275 0.0 0.0 0.00 0.00 0.00 92 1012.7
20170819100600 69 275 0.0 0.0 0.00 0.00 0.00 92 1012.6
20170819094950 69 275 0.0 0.0 0.00 0.00 0.00 92 1012.5
20170819093316 69 275 0.0 0.0 0.00 0.00 0.00 92 1012.3
20170819090040 70 275 0.0 0.0 0.00 0.00 0.00 92 1012.1
20170819084340 70 275 0.0 0.0 0.00 0.00 0.00 92 1012.0
20170819082719 70 275 0.0 0.0 0.00 0.00 0.00 92 1012.0
20170819081117 70 275 0.0 0.0 0.00 0.00 0.00 92 1012.0
20170819075455 70 275 0.0 0.0 0.00 0.00 0.00 92 1012.1
20170819073740 71 275 0.0 0.0 0.00 0.00 0.00 91 1012.0
20170819072124 71 275 0.0 0.0 0.00 0.00 0.00 91 1012.0
20170819070524 71 275 0.0 0.0 0.00 0.00 0.00 91 1012.0
20170819064825 71 275 0.0 0.0 0.00 0.00 0.00 91 1012.0
20170819063206 71 275 0.0 0.0 0.00 0.00 0.00 91 1012.2
20170819061539 72 275 0.0 0.0 0.00 0.00 0.00 92 1012.2
20170819055933 72 275 0.0 0.0 0.00 0.00 0.00 91 1012.4